Regional Weather Roundup
Issued by NWS

Home | Current Version | Previous Version | Graphics & Text | Print | Product List | Glossary Off
Versions: 1 2 3 4 5 6 7 8 9 10 11 12 13 14 15 16 17 18 19 20 21 22 23 24 25 26 27 28 29 30 31 32 33 34 35 36 37 38 39 40 41 42 43 44 45 46 47 48 49 50

674
ASUS43 KFSD 230210
RWRSD

WEATHER ROUNDUP FOR SOUTH DAKOTA
NATIONAL WEATHER SERVICE SIOUX FALLS SD
900 PM CDT MON MAY 22 2017

NOTE: "FAIR" INDICATES FEW OR NO CLOUDS BELOW 12,000 FEET WITH NO
SIGNIFICANT WEATHER AND/OR OBSTRUCTIONS TO VISIBILITY.


SDZ001>005-009-010-012>017-230300-
NORTHWEST AND NORTH CENTRAL SOUTH DAKOTA

CITY           SKY/WX    TMP DP  RH WIND       PRES   REMARKS
BUFFALO          N/A     55  38  52 N13       30.04R
FAITH            N/A     53  36  52 N13       30.05R
MOBRIDGE       CLOUDY    56  38  50 N8        29.98S
$$

SDZ012>016-024>037-041>051-057-063-072>074-230300-
SOUTHWEST AND SOUTH CENTRAL SOUTH DAKOTA

CITY           SKY/WX    TMP DP  RH WIND       PRES   REMARKS
RAPID CTY ARPT CLOUDY    50  42  74 NW10      30.11R
PIERRE         CLOUDY    56  38  50 N14       30.00R
CUSTER         CLOUDY    44  32  62 N9        30.14R
ELLSWORTH AFB  CLOUDY    50  45  83 NW10      30.11R
PHILIP         CLOUDY    53  47  79 NW9       30.04R
PINE RIDGE     CLOUDY    48  41  76 N7        30.11R
SPEARFISH      FAIR      45  41  87 W10       30.15F
WINNER         MOCLDY    55  45  68 W9        30.00R
$$

SDZ004>011-016>023-039-040-230300-
NORTHEAST SOUTH DAKOTA

CITY           SKY/WX    TMP DP  RH WIND       PRES   REMARKS
ABERDEEN       LGT RAIN  51  40  65 N13       29.96R
WATERTOWN      CLOUDY    52  41  66 N13       29.90R
BROOKINGS      CLOUDY    50  48  93 NW7       29.90R
SISSETON         N/A     51  43  74 N12       29.90R
$$

SDZ017-020-022-023-036>040-048>070-230300-
SOUTHEAST SOUTH DAKOTA

CITY           SKY/WX    TMP DP  RH WIND       PRES   REMARKS
SIOUX FALLS    CLOUDY    52  45  77 N7        29.91R
HURON          CLOUDY    54  44  69 N9        29.94R
CHAMBERLAIN    CLOUDY    57  46  64 W8        29.98R
MITCHELL       CLOUDY    54  45  71 W6        29.95R
YANKTON        CLEAR     51  45  79 NW8       29.94R
$$

ABBREVIATIONS USED IN REMARKS
   TC - TEMPERATURE IN CELSIUS
  WCI - WIND CHILL INDEX
   HX - HEAT INDEX
  VSB - VISIBILITY





USA.gov is the U.S. government's official web portal to all federal, state and local government web resources and services.